{"data":{"norad_id":39452,"intl_designator":"2013-067B","name":"SWARM A","alt_names":[],"object_type":"PAYLOAD","status":"ACTIVE","operator":null,"country":"ESA","launch_date":"2013-11-22","launch_site_code":"PLMSC","launch_vehicle":null,"mission":null,"orbit_class":"UNKNOWN","rcs_meters":2.2407,"size_class":null,"mass_kg":null,"dimensions":null,"purposes":["science"],"wikipedia_slug":null,"has_3d_model":false,"image_url":null,"decayed_at":null,"tle_current":{"epoch":"2026-05-25T02:48:32.954112Z","epoch_age_seconds":75054,"freshness":"FRESH","line1":"1 39452U 13067B   26145.11704808  .00010476  00000+0  18355-3 0  9999","line2":"2 39452  87.3332  64.8056 0003210  85.9036 274.2591 15.50419826702670","mean_motion":15.50419826,"eccentricity":0.000321,"inclination_deg":87.3332,"raan_deg":64.8056,"arg_perigee_deg":85.9036,"mean_anomaly_deg":274.2591,"bstar":0.00018355,"rev_number":70267,"period_min":92.878069272058,"perigee_km":413.31863818965,"apogee_km":417.68015275555,"semimajor_km":6793.6363954726,"source":"CELESTRAK","updated_at":"2026-05-25T13:38:24.642622Z"}}}